Weather in Knyaze-Volkonskoe

Russia / Khabarovsk Krai     48°28′08″N   135°27′16″E
temp.,
°C
wind,
m/s
gust,
m/s
humid.,
%
clouds,
%
prec.,
mm/h
press.,
hPa
HPBL,
m
26 february, fri
fri2601:00−24ssw129645 0.0 102620
04:00−25s229540 0.0 102520
07:00−24ssw229394 0.0 102725
10:00−21ssw239297 0.0 1027157
13:00−16sw238699 0.0 1028488
16:00−15wnw349099 0.1 1027419
19:00−20wsw229644 0.0 103120
22:00−21s239522 0.0 103220
27 february, sat
sat2701:00−22s23940 0.0 103526
04:00−23s33950 0.0 103529
07:00−23s34950 0.0 103665
10:00−19s47910 0.0 1035224
13:00−13ssw368530 0.0 1033407
16:00−10ssw358365 0.0 1029461
19:00−12ese228999 0.0 102621
22:00−11sse2389100 0.0 102439
28 february, sun
sun2801:00−9ssw3787100 0.0 1021207
04:00−7ssw51295100 0.8 1018595
07:00−6ssw41396100 1.7 1017720
10:00−4w5994100 2.5 1016639
13:00−7w61189100 0.1 1017381
16:00−6w71285100 0.1 1017789
19:00−9wsw61281100 0.0 1021373
22:00−14w61675100 0.0 1023461
1 march, mon
mon101:00−17w7167668 0.0 1025430
04:00−18wsw8167534 0.0 1027494
07:00−20wsw816760 0.0 1029487
10:00−18w916690 0.0 1030638
13:00−16w914670 0.0 1030917
16:00−14w811680 0.0 10301324
19:00−17sw410809 0.0 1032175
22:00−21wsw448653 0.0 103267
2 march, tue
tue201:00−23wsw348813 0.0 103247
04:00−24wsw468723 0.0 103377
07:00−25sw59820 0.0 1033123
10:00−20w510750 0.0 1033468
13:00−17w58740 0.0 1031538
16:00−16w47750 0.0 1030470
19:00−20wsw33840 0.0 103123
22:00−22ssw22830 0.0 103220